STARLINK-30067, 56693

Orbit data source: Space-Track

STARLINK-30067, 56693 is a payload satellite owned by SpaceX/Seattle (US) in LEO that was launched on Fri, 19 May 2023 UTC via an FALCON 9 launch vehicle from the Air Force Eastern Test Range (AFETR). Payload-class satellites include a variety of spacecraft equipped with specific instruments for various scientific and technological missions. These include communications satellites like Starlink; space stations such as the ISS; scientific satellites like the Hubble; Earth observation satellites from companies like Planet Labs, Umbra, and HawkEye 360; GPS; miniature CubeSats for education and research; and military/defense satellites.

Loading next visibility...
Identifier
56693, 2023-067F
Orbit
LEO
Country
Flag of USUS
Related business
Manufacturer
SpaceX/Seattle
Mission
Operational Commercial Communications
Bus & Motor
STARLINK V2M, Unknown motor
Mass
730 kg wet, ~700 kg dry
Launch date (UTC)
2023-05-19 (3 years ago)
Launch vehicle
FALCON 9
Launch site
Air Force Eastern Test Range (AFETR)
Object type
Payload
Rocket body
Debris
Shape & HBR
Box + 2 Pan, 17.7 m
Radar Cross Section
33.884 m², Large (>1 m²)

Expand to show TLE details & history
Last TLE update: 2 days ago

TLE from 2 days ago
0 STARLINK-30067
1 56693U 23067F   26171.04524101  .00000906  00000-0  42444-4 0  9998
2 56693  43.0013  63.2618 0001380 264.9518  95.1176 15.27582048171230
Epoch: 2026-06-20T01:05Z
TLE epoch observation values (Epoch: 2026-06-20T01:05:08.823Z)
Latitude
-0.00002°
Longitude
138.70951°
Altitude
482.903 km
Speed
7.626 km/s
True Right ascension
04h 13m 02s
True Declination
0° 00' 00"
Sunlit
Object was in daylight at epoch
Visualization orbit readout
Latitude
Unknown
Longitude
Unknown
Altitude
Unknown
Speed
Unknown
Apparent Right ascension
Unknown
Apparent Declination
Unknown
Sunlit
N/A
Visualization observer readout
Local Sidereal Time
21:32:27
Azimuth
Unknown
Elevation
Unknown
Doppler factor
Unknown
Orbital elements
Apogee altitude
485.935 km
Perigee altitude
484.041 km
Semi-major axis
6,863.125 km
Eccentricity
0.00014
Inclination
43.0013°
RAAN
63.2618°
Arg. of periapsis
264.9518°
True anomaly
95.13335°
Mean anomaly
95.1176°
Eccentric anomaly
95.12548°
Mean motion
3.81734 °/min
Orbital period
94.31 mins
BSTAR
0.000042444
Loading maneuver chart data...
Computing Atmospheric mass density...
Loading historical data...
Loading historical data...
Loading historical data...
Loading historical data...
Loading historical data...
Loading historical data...
Loading historical data...

Documentation

Showing up to 5 results
|